status,avgMeasuredTime,avgSpeed,extID,medianMeasuredTime,TIMESTAMP,vehicleCount,_id,REPORT_ID
OK,60,60,901,60,2014-08-01T08:00:00,15,20746956,180573
OK,60,60,901,60,2014-08-01T08:05:00,16,20747405,180573
OK,59,61,901,59,2014-08-01T08:10:00,9,20747778,180573
OK,56,64,901,56,2014-08-01T08:15:00,10,20748227,180573
OK,53,68,901,53,2014-08-01T08:20:00,12,20748676,180573
OK,53,68,901,53,2014-08-01T08:25:00,8,20749125,180573
OK,55,65,901,55,2014-08-01T08:30:00,11,20749574,180573
OK,55,65,901,55,2014-08-01T08:35:00,17,20750023,180573
OK,55,65,901,55,2014-08-01T08:40:00,11,20750472,180573
OK,49,74,901,49,2014-08-01T08:45:00,7,20750921,180573
OK,53,68,901,53,2014-08-01T08:50:00,9,20751370,180573
OK,57,63,901,57,2014-08-01T08:55:00,9,20751819,180573
OK,53,68,901,53,2014-08-01T09:00:00,15,20752268,180573
OK,54,67,901,54,2014-08-01T09:05:00,22,20752717,180573
OK,58,62,901,58,2014-08-01T09:10:00,20,20753166,180573
OK,53,68,901,53,2014-08-01T09:20:00,12,20754064,180573
OK,59,61,901,59,2014-08-01T09:25:00,9,20754513,180573
OK,61,59,901,61,2014-08-01T09:30:00,9,20754962,180573
OK,59,61,901,59,2014-08-01T09:35:00,14,20755411,180573
OK,59,61,901,59,2014-08-01T09:40:00,13,20755860,180573
OK,55,65,901,55,2014-08-01T09:45:00,13,20756309,180573
OK,54,67,901,54,2014-08-01T09:50:00,12,20756758,180573
OK,57,63,901,57,2014-08-01T09:55:00,5,20757207,180573
OK,55,65,901,55,2014-08-01T10:00:00,3,20757656,180573
OK,60,60,901,60,2014-08-01T10:05:00,8,20758105,180573
OK,51,71,901,51,2014-08-01T10:15:00,17,20759003,180573
OK,54,67,901,54,2014-08-01T10:20:00,21,20759452,180573
OK,56,64,901,56,2014-08-01T10:25:00,30,20759901,180573
OK,55,65,901,55,2014-08-01T10:30:00,25,20760350,180573
OK,55,65,901,55,2014-08-01T10:35:00,10,20760799,180573
OK,54,67,901,54,2014-08-01T10:40:00,8,20761248,180573
OK,55,65,901,55,2014-08-01T10:45:00,13,20761697,180573
OK,56,64,901,56,2014-08-01T10:50:00,10,20762146,180573
OK,51,71,901,51,2014-08-01T10:55:00,9,20762595,180573
OK,56,64,901,56,2014-08-01T11:00:00,12,20763044,180573
OK,57,63,901,57,2014-08-01T11:05:00,10,20763493,180573
OK,64,56,901,64,2014-08-01T11:10:00,11,20763942,180573
OK,64,56,901,64,2014-08-01T11:15:00,11,20764390,180573
OK,63,57,901,63,2014-08-01T11:20:00,5,20764839,180573
OK,57,63,901,57,2014-08-01T11:25:00,8,20765288,180573
OK,62,58,901,62,2014-08-01T11:30:00,8,20765737,180573
OK,55,65,901,55,2014-08-01T11:35:00,8,20766186,180573
OK,56,64,901,56,2014-08-01T11:40:00,7,20766635,180573
OK,63,57,901,63,2014-08-01T11:45:00,9,20767084,180573
OK,60,60,901,60,2014-08-01T11:50:00,13,20767533,180573
OK,59,61,901,59,2014-08-01T11:55:00,10,20767982,180573
OK,57,63,901,57,2014-08-01T12:00:00,11,20768431,180573
OK,54,67,901,54,2014-08-01T12:05:00,7,20768880,180573
OK,74,49,901,74,2014-08-01T12:10:00,10,20769329,180573
OK,63,57,901,63,2014-08-01T12:15:00,11,20769778,180573
OK,54,67,901,54,2014-08-01T12:20:00,10,20770227,180573
OK,55,65,901,55,2014-08-01T12:25:00,12,20770676,180573
OK,54,67,901,54,2014-08-01T12:30:00,11,20771125,180573
OK,57,63,901,57,2014-08-01T12:35:00,14,20771574,180573
OK,55,65,901,55,2014-08-01T12:40:00,25,20772023,180573
OK,54,67,901,54,2014-08-01T12:45:00,23,20772472,180573
OK,63,57,901,63,2014-08-01T12:50:00,19,20772921,180573
OK,57,63,901,57,2014-08-01T12:55:00,20,20773370,180573
OK,54,67,901,54,2014-08-01T13:00:00,12,20773819,180573
OK,56,64,901,56,2014-08-01T13:05:00,12,20774268,180573
OK,58,62,901,58,2014-08-01T13:10:00,19,20774717,180573
OK,58,62,901,58,2014-08-01T13:15:00,17,20775166,180573
OK,64,56,901,64,2014-08-01T13:20:00,12,20775615,180573
OK,61,59,901,61,2014-08-01T13:25:00,15,20776064,180573
OK,58,62,901,58,2014-08-01T13:30:00,17,20776513,180573
OK,58,62,901,58,2014-08-01T13:35:00,14,20776962,180573
OK,59,61,901,59,2014-08-01T13:40:00,12,20777411,180573
OK,60,60,901,60,2014-08-01T13:45:00,8,20777860,180573
OK,57,63,901,57,2014-08-01T13:50:00,6,20778309,180573
OK,57,63,901,57,2014-08-01T14:00:00,9,20779207,180573
OK,63,57,901,63,2014-08-01T14:05:00,7,20779656,180573
OK,59,61,901,59,2014-08-01T14:10:00,13,20780105,180573
OK,59,61,901,59,2014-08-01T14:15:00,16,20780554,180573
OK,62,58,901,62,2014-08-01T14:20:00,14,20781003,180573
OK,62,58,901,62,2014-08-01T14:25:00,14,20781452,180573
OK,62,58,901,62,2014-08-01T14:30:00,15,20781901,180573
OK,61,59,901,61,2014-08-01T14:35:00,14,20782350,180573
OK,60,60,901,60,2014-08-01T14:40:00,11,20782799,180573
OK,58,62,901,58,2014-08-01T14:45:00,13,20783248,180573
OK,57,63,901,57,2014-08-01T14:50:00,12,20783697,180573
OK,54,67,901,54,2014-08-01T14:55:00,8,20784146,180573
OK,52,69,901,52,2014-08-01T15:00:00,7,20784595,180573
OK,52,69,901,52,2014-08-01T15:05:00,4,20785044,180573
OK,60,60,901,60,2014-08-01T15:10:00,1,20785493,180573
OK,46,78,901,46,2014-08-01T15:15:00,3,20785942,180573
OK,51,71,901,51,2014-08-01T15:20:00,4,20786391,180573
OK,54,67,901,54,2014-08-01T15:25:00,10,20786840,180573
OK,56,64,901,56,2014-08-01T15:30:00,8,20787289,180573
OK,52,69,901,52,2014-08-01T15:35:00,5,20787738,180573
OK,52,69,901,52,2014-08-01T15:40:00,4,20788187,180573
OK,54,67,901,54,2014-08-01T15:45:00,4,20788636,180573
OK,54,67,901,54,2014-08-01T15:50:00,10,20789085,180573
OK,56,64,901,56,2014-08-01T15:55:00,10,20789534,180573
OK,48,75,901,48,2014-08-01T16:00:00,3,20789983,180573
OK,54,67,901,54,2014-08-01T16:05:00,5,20790432,180573
OK,50,72,901,50,2014-08-01T16:10:00,6,20790881,180573
OK,48,75,901,48,2014-08-01T16:15:00,2,20791330,180573
OK,49,74,901,49,2014-08-01T16:20:00,4,20791779,180573
OK,49,74,901,49,2014-08-01T16:25:00,1,20792228,180573
OK,44,82,901,44,2014-08-01T16:30:00,4,20792677,180573
OK,41,88,901,41,2014-08-01T16:35:00,3,20793126,180573
OK,52,69,901,52,2014-08-01T16:40:00,4,20793575,180573
OK,52,69,901,52,2014-08-01T16:45:00,8,20794024,180573
OK,46,78,901,46,2014-08-01T16:50:00,3,20794473,180573
OK,57,63,901,57,2014-08-01T16:55:00,1,20794922,180573
OK,54,67,901,54,2014-08-01T17:00:00,2,20795371,180573
OK,52,69,901,52,2014-08-01T17:05:00,3,20795820,180573
OK,51,71,901,51,2014-08-01T17:10:00,5,20796269,180573
OK,52,69,901,52,2014-08-01T17:15:00,4,20796718,180573
OK,44,82,901,44,2014-08-01T17:20:00,2,20797167,180573
OK,50,72,901,50,2014-08-01T17:25:00,3,20797616,180573
OK,52,69,901,52,2014-08-01T17:30:00,2,20798065,180573
OK,51,71,901,51,2014-08-01T17:35:00,5,20798514,180573
OK,52,69,901,52,2014-08-01T17:40:00,6,20798963,180573
OK,53,68,901,53,2014-08-01T17:45:00,5,20799412,180573
OK,55,65,901,55,2014-08-01T17:50:00,4,20799861,180573
OK,56,64,901,56,2014-08-01T17:55:00,3,20800310,180573
OK,58,62,901,58,2014-08-01T18:00:00,2,20800759,180573
OK,61,59,901,61,2014-08-01T18:05:00,7,20801208,180573
OK,63,57,901,63,2014-08-01T18:10:00,6,20801657,180573
OK,54,67,901,54,2014-08-01T18:15:00,2,20802106,180573
OK,64,56,901,64,2014-08-01T18:20:00,5,20802555,180573
OK,65,55,901,65,2014-08-01T18:25:00,4,20803004,180573
OK,59,61,901,59,2014-08-01T18:30:00,3,20803453,180573
OK,53,68,901,53,2014-08-01T18:35:00,3,20803902,180573
OK,53,68,901,53,2014-08-01T18:40:00,0,20804351,180573
OK,49,74,901,49,2014-08-01T18:45:00,1,20804800,180573
OK,64,56,901,64,2014-08-01T18:50:00,2,20805249,180573
OK,54,67,901,54,2014-08-01T18:55:00,2,20805698,180573
OK,61,59,901,61,2014-08-01T19:00:00,3,20806147,180573
OK,61,59,901,61,2014-08-01T19:05:00,3,20806596,180573
OK,58,62,901,58,2014-08-01T19:10:00,2,20807045,180573
OK,60,60,901,60,2014-08-01T19:15:00,0,20807494,180573
OK,47,77,901,47,2014-08-01T19:20:00,1,20807943,180573
OK,55,65,901,55,2014-08-01T19:25:00,3,20808392,180573
OK,52,69,901,52,2014-08-01T19:30:00,4,20808841,180573
OK,49,74,901,49,2014-08-01T19:35:00,5,20809290,180573
OK,53,68,901,53,2014-08-01T19:40:00,2,20809739,180573
OK,94,38,901,94,2014-08-01T19:45:00,2,20810188,180573
OK,48,75,901,48,2014-08-01T19:50:00,4,20810637,180573
OK,43,84,901,43,2014-08-01T19:55:00,4,20811086,180573
OK,50,72,901,50,2014-08-01T22:00:00,0,20816815,180573
OK,76,47,901,76,2014-08-01T22:05:00,2,20817264,180573
OK,75,48,901,75,2014-08-02T00:00:00,1,20823254,180573
OK,78,46,901,78,2014-08-02T00:05:00,1,20823703,180573
OK,78,46,901,78,2014-08-02T00:10:00,0,20824152,180573
OK,78,46,901,78,2014-08-02T00:15:00,0,20824601,180573
OK,78,46,901,78,2014-08-02T00:20:00,0,20825050,180573
OK,63,57,901,63,2014-08-02T00:25:00,2,20825499,180573
OK,84,43,901,84,2014-08-02T00:30:00,3,20825948,180573
OK,78,46,901,78,2014-08-02T00:35:00,1,20826397,180573
OK,78,46,901,78,2014-08-02T00:40:00,0,20826846,180573
OK,78,46,901,78,2014-08-02T00:45:00,0,20827295,180573
OK,78,46,901,78,2014-08-02T00:50:00,0,20827744,180573
OK,78,46,901,78,2014-08-02T00:55:00,2,20828193,180573
OK,78,46,901,78,2014-08-02T01:00:00,2,20828642,180573
OK,78,46,901,78,2014-08-02T01:05:00,0,20829091,180573
OK,78,46,901,78,2014-08-02T01:10:00,0,20829540,180573
OK,78,46,901,78,2014-08-02T01:15:00,0,20829989,180573
OK,78,46,901,78,2014-08-02T01:20:00,0,20830438,180573
OK,78,46,901,78,2014-08-02T01:25:00,0,20830887,180573
OK,78,46,901,78,2014-08-02T01:30:00,0,20831336,180573
OK,78,46,901,78,2014-08-02T01:35:00,0,20831785,180573
OK,78,46,901,78,2014-08-02T01:40:00,0,20832234,180573
OK,78,46,901,78,2014-08-02T01:45:00,0,20832683,180573
OK,78,46,901,78,2014-08-02T01:50:00,0,20833132,180573
OK,55,65,901,55,2014-08-02T01:55:00,1,20833581,180573
OK,55,65,901,55,2014-08-02T02:00:00,0,20834030,180573
OK,55,65,901,55,2014-08-02T02:05:00,0,20834479,180573
OK,55,65,901,55,2014-08-02T02:10:00,0,20834928,180573
OK,66,54,901,66,2014-08-02T02:15:00,4,20835377,180573
OK,64,56,901,64,2014-08-02T02:20:00,4,20835826,180573
OK,62,58,901,62,2014-08-02T02:25:00,0,20836275,180573
OK,62,58,901,62,2014-08-02T02:30:00,0,20836724,180573
OK,94,38,901,94,2014-08-02T02:35:00,1,20837173,180573
OK,85,42,901,85,2014-08-02T02:40:00,2,20837622,180573
OK,77,47,901,77,2014-08-02T02:45:00,1,20838071,180573
OK,77,47,901,77,2014-08-02T02:50:00,0,20838520,180573
OK,77,47,901,77,2014-08-02T02:55:00,0,20838969,180573
OK,70,51,901,70,2014-08-02T03:00:00,1,20839418,180573
OK,59,61,901,59,2014-08-02T03:05:00,1,20839867,180573
OK,59,61,901,59,2014-08-02T03:10:00,0,20840316,180573
OK,56,64,901,56,2014-08-02T03:15:00,0,20840765,180573
OK,56,64,901,56,2014-08-02T03:20:00,0,20841214,180573
OK,56,64,901,56,2014-08-02T03:25:00,0,20841663,180573
OK,56,64,901,56,2014-08-02T03:30:00,0,20842112,180573
OK,56,64,901,56,2014-08-02T03:35:00,0,20842561,180573
OK,56,64,901,56,2014-08-02T03:40:00,0,20843010,180573
OK,85,42,901,85,2014-08-02T03:45:00,0,20843459,180573
OK,53,68,901,53,2014-08-02T03:50:00,4,20843908,180573
OK,55,65,901,55,2014-08-02T03:55:00,2,20844357,180573
OK,111,32,901,111,2014-08-02T06:00:00,1,20851811,180573
OK,111,32,901,111,2014-08-02T06:05:00,1,20852260,180573
OK,58,62,901,58,2014-08-02T06:10:00,3,20852709,180573
OK,51,71,901,51,2014-08-02T06:15:00,2,20853158,180573
OK,56,64,901,56,2014-08-02T06:20:00,1,20853607,180573
OK,51,71,901,51,2014-08-02T06:25:00,2,20854056,180573
OK,47,77,901,47,2014-08-02T06:30:00,1,20854505,180573
OK,46,78,901,46,2014-08-02T06:35:00,2,20854954,180573
OK,51,71,901,51,2014-08-02T06:40:00,3,20855403,180573
OK,51,71,901,51,2014-08-02T06:45:00,4,20855852,180573
OK,45,80,901,45,2014-08-02T06:50:00,3,20856301,180573
OK,48,75,901,48,2014-08-02T06:55:00,2,20856750,180573
OK,53,68,901,53,2014-08-02T07:00:00,0,20857199,180573
OK,55,65,901,55,2014-08-02T07:05:00,2,20857648,180573
OK,57,63,901,57,2014-08-02T07:10:00,1,20858097,180573
OK,57,63,901,57,2014-08-02T07:15:00,2,20858546,180573
OK,55,65,901,55,2014-08-02T07:20:00,6,20858995,180573
OK,56,64,901,56,2014-08-02T07:25:00,3,20859444,180573
OK,54,67,901,54,2014-08-02T07:30:00,4,20859893,180573
OK,52,69,901,52,2014-08-02T07:35:00,8,20860342,180573
OK,54,67,901,54,2014-08-02T07:40:00,12,20860791,180573
OK,58,62,901,58,2014-08-02T07:45:00,7,20861240,180573
OK,54,67,901,54,2014-08-02T07:50:00,4,20861689,180573
OK,51,71,901,51,2014-08-02T07:55:00,7,20862138,180573
OK,53,68,901,53,2014-08-02T08:00:00,6,20862587,180573
OK,47,77,901,47,2014-08-02T08:05:00,8,20863036,180573
OK,50,72,901,50,2014-08-02T08:10:00,6,20863485,180573
OK,56,64,901,56,2014-08-02T08:15:00,6,20863934,180573
OK,56,64,901,56,2014-08-02T08:20:00,4,20864383,180573
OK,57,63,901,57,2014-08-02T08:25:00,5,20864832,180573
OK,54,67,901,54,2014-08-02T08:30:00,9,20865281,180573
OK,53,68,901,53,2014-08-02T08:35:00,6,20865730,180573
OK,52,69,901,52,2014-08-02T08:40:00,6,20866179,180573
OK,54,67,901,54,2014-08-02T08:45:00,8,20866628,180573
OK,56,64,901,56,2014-08-02T08:50:00,9,20867077,180573
OK,53,68,901,53,2014-08-02T08:55:00,9,20867526,180573
OK,52,69,901,52,2014-08-02T09:00:00,10,20867975,180573
OK,51,71,901,51,2014-08-02T09:05:00,9,20868424,180573
OK,49,74,901,49,2014-08-02T09:10:00,10,20868873,180573
OK,52,69,901,52,2014-08-02T09:15:00,12,20869322,180573
OK,56,64,901,56,2014-08-02T09:20:00,9,20869771,180573
OK,57,63,901,57,2014-08-02T09:25:00,11,20870220,180573
OK,55,65,901,55,2014-08-02T09:30:00,8,20870669,180573
OK,52,69,901,52,2014-08-02T09:35:00,4,20871118,180573
OK,53,68,901,53,2014-08-02T09:40:00,13,20871567,180573
OK,51,71,901,51,2014-08-02T09:45:00,14,20872016,180573
OK,53,68,901,53,2014-08-02T09:50:00,9,20872465,180573
OK,54,67,901,54,2014-08-02T09:55:00,13,20872914,180573
OK,59,61,901,59,2014-08-02T10:00:00,11,20873363,180573
OK,56,64,901,56,2014-08-02T10:05:00,7,20873812,180573
OK,55,65,901,55,2014-08-02T10:10:00,9,20874261,180573
OK,56,64,901,56,2014-08-02T10:15:00,7,20874710,180573
OK,55,65,901,55,2014-08-02T10:20:00,12,20875159,180573
OK,54,67,901,54,2014-08-02T10:25:00,13,20875608,180573
OK,51,71,901,51,2014-08-02T10:30:00,7,20876057,180573
OK,52,69,901,52,2014-08-02T10:35:00,7,20876506,180573
OK,52,69,901,52,2014-08-02T10:40:00,7,20876955,180573
OK,51,71,901,51,2014-08-02T10:45:00,4,20877404,180573
OK,53,68,901,53,2014-08-02T10:50:00,8,20877853,180573
OK,51,71,901,51,2014-08-02T10:55:00,8,20878302,180573
OK,50,72,901,50,2014-08-02T11:00:00,7,20878751,180573
OK,54,67,901,54,2014-08-02T11:05:00,5,20879200,180573
OK,52,69,901,52,2014-08-02T11:10:00,6,20879649,180573
OK,59,61,901,59,2014-08-02T11:15:00,8,20880098,180573
OK,58,62,901,58,2014-08-02T11:20:00,10,20880547,180573
OK,53,68,901,53,2014-08-02T11:25:00,7,20880996,180573
OK,50,72,901,50,2014-08-02T11:30:00,5,20881445,180573
OK,50,72,901,50,2014-08-02T11:35:00,9,20881894,180573
OK,55,65,901,55,2014-08-02T11:40:00,10,20882343,180573
OK,55,65,901,55,2014-08-02T11:45:00,8,20882792,180573
OK,55,65,901,55,2014-08-02T11:50:00,5,20883241,180573
OK,54,67,901,54,2014-08-02T11:55:00,5,20883690,180573
OK,54,67,901,54,2014-08-02T12:00:00,4,20884139,180573
OK,52,69,901,52,2014-08-02T12:05:00,6,20884588,180573
OK,56,64,901,56,2014-08-02T12:10:00,7,20885037,180573
OK,63,57,901,63,2014-08-02T12:15:00,8,20885486,180573
OK,53,68,901,53,2014-08-02T12:20:00,5,20885935,180573
OK,53,68,901,53,2014-08-02T12:25:00,3,20886384,180573
OK,53,68,901,53,2014-08-02T12:30:00,4,20886833,180573
OK,59,61,901,59,2014-08-02T12:35:00,5,20887282,180573
OK,58,62,901,58,2014-08-02T12:40:00,7,20887731,180573
OK,53,68,901,53,2014-08-02T12:45:00,4,20888180,180573
OK,53,68,901,53,2014-08-02T12:50:00,3,20888629,180573
OK,53,68,901,53,2014-08-02T12:55:00,3,20889078,180573
OK,50,72,901,50,2014-08-02T13:00:00,5,20889527,180573
OK,53,68,901,53,2014-08-02T13:05:00,6,20889976,180573
OK,60,60,901,60,2014-08-02T13:10:00,7,20890425,180573
OK,55,65,901,55,2014-08-02T13:15:00,5,20890874,180573
OK,55,65,901,55,2014-08-02T13:20:00,6,20891323,180573
OK,51,71,901,51,2014-08-02T13:25:00,10,20891772,180573
OK,48,75,901,48,2014-08-02T13:30:00,7,20892221,180573
OK,51,71,901,51,2014-08-02T13:35:00,11,20892670,180573
OK,53,68,901,53,2014-08-02T13:40:00,9,20893119,180573
OK,53,68,901,53,2014-08-02T13:45:00,8,20893568,180573
OK,53,68,901,53,2014-08-02T13:50:00,11,20894017,180573
OK,53,68,901,53,2014-08-02T13:55:00,7,20894466,180573
OK,54,67,901,54,2014-08-02T14:00:00,5,20894915,180573
OK,77,47,901,77,2014-08-02T14:05:00,2,20895364,180573
OK,47,77,901,47,2014-08-02T14:10:00,3,20895813,180573
OK,57,63,901,57,2014-08-02T14:15:00,7,20896262,180573
OK,52,69,901,52,2014-08-02T14:20:00,7,20896711,180573
OK,37,98,901,37,2014-08-02T14:25:00,2,20897160,180573
OK,47,77,901,47,2014-08-02T14:30:00,5,20897609,180573
OK,46,78,901,46,2014-08-02T14:35:00,6,20898058,180573
OK,46,78,901,46,2014-08-02T14:40:00,4,20898507,180573
OK,48,75,901,48,2014-08-02T14:45:00,2,20898956,180573
OK,45,80,901,45,2014-08-02T14:50:00,3,20899405,180573
OK,57,63,901,57,2014-08-02T14:55:00,3,20899854,180573
OK,53,68,901,53,2014-08-02T15:00:00,5,20900303,180573
OK,52,69,901,52,2014-08-02T15:05:00,7,20900752,180573
OK,55,65,901,55,2014-08-02T15:10:00,5,20901201,180573
OK,55,65,901,55,2014-08-02T15:15:00,3,20901650,180573
OK,51,71,901,51,2014-08-02T15:20:00,2,20902099,180573
OK,53,68,901,53,2014-08-02T15:25:00,1,20902548,180573
OK,53,68,901,53,2014-08-02T15:30:00,7,20902997,180573
OK,59,61,901,59,2014-08-02T15:35:00,10,20903446,180573
OK,64,56,901,64,2014-08-02T15:40:00,6,20903895,180573
OK,78,46,901,78,2014-08-02T15:45:00,2,20904344,180573
OK,58,62,901,58,2014-08-02T15:50:00,6,20904793,180573
OK,59,61,901,59,2014-08-02T15:55:00,10,20905242,180573
OK,123,29,901,123,2014-08-02T16:00:00,3,20905691,180573
OK,55,65,901,55,2014-08-02T16:05:00,2,20906140,180573
OK,64,56,901,64,2014-08-02T16:10:00,10,20906589,180573
OK,63,57,901,63,2014-08-02T16:15:00,12,20907038,180573
OK,60,60,901,60,2014-08-02T16:20:00,6,20907487,180573
OK,57,63,901,57,2014-08-02T16:25:00,7,20907936,180573
OK,54,67,901,54,2014-08-02T16:30:00,5,20908385,180573
OK,86,42,901,86,2014-08-02T16:35:00,2,20908834,180573
OK,55,65,901,55,2014-08-02T16:40:00,1,20909283,180573
OK,56,64,901,56,2014-08-02T16:45:00,3,20909732,180573
OK,57,63,901,57,2014-08-02T16:50:00,2,20910181,180573
OK,59,61,901,59,2014-08-02T16:55:00,1,20910630,180573
OK,60,60,901,60,2014-08-02T17:00:00,1,20911079,180573
OK,62,58,901,62,2014-08-02T17:05:00,4,20911528,180573
OK,61,59,901,61,2014-08-02T17:10:00,4,20911977,180573
OK,59,61,901,59,2014-08-02T17:15:00,2,20912426,180573
OK,64,56,901,64,2014-08-02T17:20:00,3,20912875,180573
OK,56,64,901,56,2014-08-02T17:25:00,2,20913324,180573
OK,64,56,901,64,2014-08-02T17:30:00,0,20913773,180573
OK,53,68,901,53,2014-08-02T17:35:00,1,20914222,180573
OK,53,68,901,53,2014-08-02T17:40:00,1,20914671,180573
OK,45,80,901,45,2014-08-02T17:45:00,1,20915120,180573
OK,51,71,901,51,2014-08-02T17:50:00,2,20915569,180573
OK,58,62,901,58,2014-08-02T17:55:00,1,20916018,180573
OK,107,33,901,107,2014-08-02T18:00:00,2,20916467,180573
OK,62,58,901,62,2014-08-02T18:05:00,2,20916916,180573
OK,62,58,901,62,2014-08-02T18:10:00,2,20917365,180573
OK,45,80,901,45,2014-08-02T18:15:00,2,20917814,180573
OK,48,75,901,48,2014-08-02T18:20:00,4,20918263,180573
OK,56,64,901,56,2014-08-02T18:25:00,3,20918712,180573
OK,79,45,901,79,2014-08-02T18:30:00,2,20919161,180573
OK,91,39,901,91,2014-08-02T18:35:00,2,20919610,180573
OK,79,45,901,79,2014-08-02T18:40:00,1,20920059,180573
OK,122,29,901,122,2014-08-02T18:45:00,1,20920508,180573
OK,84,43,901,84,2014-08-02T18:50:00,2,20920957,180573
OK,47,77,901,47,2014-08-02T18:55:00,2,20921406,180573
OK,64,56,901,64,2014-08-02T19:00:00,2,20921855,180573
OK,41,88,901,41,2014-08-02T19:05:00,1,20922304,180573
OK,49,74,901,49,2014-08-02T19:10:00,3,20922753,180573
OK,51,71,901,51,2014-08-02T19:15:00,5,20923202,180573
OK,54,67,901,54,2014-08-02T19:20:00,1,20923651,180573
OK,54,67,901,54,2014-08-02T19:25:00,0,20924100,180573
OK,40,90,901,40,2014-08-02T19:30:00,1,20924549,180573
OK,46,78,901,46,2014-08-02T19:35:00,2,20924998,180573
OK,46,78,901,46,2014-08-02T19:40:00,1,20925447,180573
OK,47,77,901,47,2014-08-02T19:45:00,6,20925896,180573
OK,53,68,901,53,2014-08-02T19:50:00,8,20926345,180573
OK,52,69,901,52,2014-08-02T19:55:00,3,20926794,180573
OK,52,69,901,52,2014-08-02T20:00:00,0,20927243,180573
OK,61,59,901,61,2014-08-02T20:05:00,1,20927692,180573
OK,61,59,901,61,2014-08-02T20:10:00,1,20928141,180573
OK,48,75,901,48,2014-08-02T20:15:00,2,20928590,180573
OK,53,68,901,53,2014-08-02T20:20:00,1,20929039,180573
OK,53,68,901,53,2014-08-02T20:25:00,0,20929488,180573
OK,49,74,901,49,2014-08-02T20:30:00,1,20929937,180573
OK,50,72,901,50,2014-08-02T20:35:00,1,20930386,180573
OK,57,63,901,57,2014-08-02T20:40:00,4,20930835,180573
OK,57,63,901,57,2014-08-02T20:45:00,4,20931284,180573
OK,58,62,901,58,2014-08-02T20:50:00,2,20931733,180573
OK,58,62,901,58,2014-08-02T20:55:00,0,20932182,180573
OK,56,64,901,56,2014-08-02T21:00:00,2,20932631,180573
OK,56,64,901,56,2014-08-02T21:05:00,2,20933080,180573
OK,69,52,901,69,2014-08-02T21:10:00,1,20933529,180573
OK,83,43,901,83,2014-08-02T21:15:00,2,20933978,180573
OK,84,43,901,84,2014-08-02T21:20:00,5,20934427,180573
OK,78,46,901,78,2014-08-02T21:25:00,1,20934876,180573
OK,88,41,901,88,2014-08-02T21:30:00,2,20935325,180573
OK,87,41,901,87,2014-08-02T21:35:00,2,20935774,180573
OK,100,36,901,100,2014-08-02T21:40:00,1,20936223,180573
OK,81,44,901,81,2014-08-02T21:45:00,2,20936672,180573
OK,91,39,901,91,2014-08-02T21:50:00,3,20937121,180573
OK,76,47,901,76,2014-08-02T21:55:00,2,20937570,180573
OK,61,59,901,61,2014-08-02T22:00:00,0,20938019,180573
OK,79,45,901,79,2014-08-02T22:05:00,2,20938468,180573
OK,78,46,901,78,2014-08-02T22:10:00,4,20938917,180573
OK,80,45,901,80,2014-08-02T22:15:00,5,20939366,180573
OK,91,39,901,91,2014-08-02T22:20:00,1,20939815,180573
OK,76,47,901,76,2014-08-02T22:25:00,1,20940264,180573
OK,77,47,901,77,2014-08-02T22:30:00,1,20940713,180573
OK,79,45,901,79,2014-08-02T22:35:00,2,20941162,180573
OK,78,46,901,78,2014-08-02T22:40:00,5,20941611,180573
OK,83,43,901,83,2014-08-02T22:45:00,3,20942060,180573
OK,78,46,901,78,2014-08-02T22:50:00,3,20942509,180573
OK,77,47,901,77,2014-08-02T22:55:00,1,20942958,180573
OK,84,43,901,84,2014-08-02T23:00:00,1,20943407,180573
OK,79,45,901,79,2014-08-02T23:10:00,1,20943856,180573
OK,81,44,901,81,2014-08-02T23:15:00,3,20944305,180573
OK,78,46,901,78,2014-08-02T23:20:00,3,20944754,180573
OK,78,46,901,78,2014-08-02T23:25:00,3,20945203,180573
OK,85,42,901,85,2014-08-02T23:30:00,3,20945652,180573
OK,89,40,901,89,2014-08-02T23:35:00,7,20946101,180573
OK,89,40,901,89,2014-08-02T23:40:00,6,20946550,180573
OK,67,54,901,67,2014-08-02T23:45:00,3,20946999,180573
OK,67,54,901,67,2014-08-02T23:50:00,1,20947448,180573
OK,88,41,901,88,2014-08-02T23:55:00,1,20947897,180573
OK,89,40,901,89,2014-08-03T00:00:00,2,20948346,180573
OK,85,42,901,85,2014-08-03T00:05:00,2,20948795,180573
OK,85,42,901,85,2014-08-03T00:10:00,2,20949243,180573
OK,90,40,901,90,2014-08-03T00:15:00,0,20949692,180573
OK,81,44,901,81,2014-08-03T00:20:00,1,20950141,180573
OK,98,37,901,98,2014-08-03T00:25:00,3,20950590,180573
OK,100,36,901,100,2014-08-03T00:30:00,2,20951039,180573
OK,100,36,901,100,2014-08-03T00:35:00,0,20951488,180573
OK,73,49,901,73,2014-08-03T00:40:00,3,20951937,180573
OK,73,49,901,73,2014-08-03T00:45:00,3,20952386,180573
OK,86,42,901,86,2014-08-03T00:50:00,4,20952835,180573
OK,86,42,901,86,2014-08-03T00:55:00,4,20953284,180573
OK,79,45,901,79,2014-08-03T01:00:00,0,20953733,180573
OK,79,45,901,79,2014-08-03T01:05:00,0,20954182,180573
OK,75,48,901,75,2014-08-03T01:10:00,1,20954631,180573
OK,75,48,901,75,2014-08-03T01:15:00,0,20955080,180573
OK,75,48,901,75,2014-08-03T01:20:00,0,20955529,180573
OK,75,48,901,75,2014-08-03T01:25:00,0,20955978,180573
OK,83,43,901,83,2014-08-03T01:30:00,1,20956427,180573
OK,83,43,901,83,2014-08-03T01:35:00,0,20956876,180573
OK,83,43,901,83,2014-08-03T01:40:00,0,20957325,180573
OK,91,39,901,91,2014-08-03T01:45:00,1,20957774,180573
OK,91,39,901,91,2014-08-03T01:50:00,1,20958223,180573
OK,60,60,901,60,2014-08-03T01:55:00,1,20958672,180573
OK,77,47,901,77,2014-08-03T02:00:00,1,20959121,180573
OK,77,47,901,77,2014-08-03T02:05:00,0,20959570,180573